Location: Newark
(49.5647°N, 8.2922°E)
Time: 12:50:50
(UTC+00:00)

SR - All Passes

Search period start: 17 February 2020 00:00
Search period end: 27 February 2020 00:00
Orbit: 575 x 881 km, 66.7° (Epoch: 17 February)

Date Brightness Start Highest point End Pass type
(mag) Time Alt. Az. Time Alt. Az. Time Alt. Az.
17 Feb - 00:40:54 10° NW 00:46:21 80° WSW 00:51:18 10° SSE night (unlit)
17 Feb - 02:24:58 10° WNW 02:27:26 13° WSW 02:29:48 10° SW night (unlit)
17 Feb - 15:14:25 10° S 15:19:33 32° ESE 15:24:39 10° NE daylight
17 Feb - 16:55:34 10° SW 17:01:25 60° NW 17:07:11 10° NNE daylight
17 Feb - 18:40:17 10° WNW 18:44:41 21° NNW 18:48:59 10° NNE visible
17 Feb - 20:26:13 10° NNW 20:29:00 14° N 20:31:43 10° NNE visible
17 Feb - 22:09:17 10° NNW 22:13:20 20° NNE 22:17:10 10° ENE visible
17 Feb - 23:51:11 10° NNW 23:56:37 60° NE 00:01:33 10° SE night (unlit)
18 Feb - 01:33:58 10° NW 01:38:16 25° WSW 01:42:16 10° SSW night (unlit)
18 Feb - 14:26:25 10° SSE 14:30:16 18° ESE 14:34:06 10° ENE daylight
18 Feb - 16:05:42 10° SSW 16:11:39 86° SE 16:17:31 10° NE daylight
18 Feb - 17:49:23 10° W 17:54:27 28° NW 17:59:23 10° NNE visible
18 Feb - 19:35:23 10° NW 19:38:29 14° N 19:41:29 10° NNE visible
18 Feb - 21:19:34 10° NNW 21:22:57 16° NNE 21:26:12 10° NE visible
18 Feb - 23:01:33 10° NNW 23:06:41 38° NE 23:11:23 10° ESE visible
19 Feb - 00:43:48 10° NW 00:48:56 47° WSW 00:53:35 10° S night (unlit)
19 Feb - 15:16:20 10° SSW 15:22:03 52° ESE 15:27:42 10° NE daylight
19 Feb - 16:58:48 10° WSW 17:04:22 41° NW 17:09:49 10° NNE daylight
19 Feb - 18:44:18 10° WNW 18:48:01 17° NNW 18:51:39 10° NNE visible
19 Feb - 20:29:35 10° NNW 20:32:28 14° N 20:35:15 10° NE visible
19 Feb - 22:11:58 10° NNW 22:16:34 26° NNE 22:20:51 10° E visible
19 Feb - 23:53:56 10° NW 23:59:22 84° SW 00:04:17 10° SSE night (unlit)
20 Feb - 01:37:50 10° WNW 01:40:30 14° WSW 01:43:03 10° SW night (unlit)
20 Feb - 14:27:34 10° S 14:32:36 30° ESE 14:37:38 10° NE daylight
20 Feb - 16:08:34 10° SW 16:14:27 63° NW 16:20:13 10° NNE daylight
20 Feb - 17:53:13 10° WNW 17:57:40 22° NNW 18:01:59 10° NNE visible
20 Feb - 19:39:12 10° NNW 19:41:57 13° N 19:44:37 10° NNE visible
20 Feb - 21:22:20 10° NNW 21:26:18 19° NNE 21:30:02 10° ENE visible
20 Feb - 23:04:14 10° NNW 23:09:37 57° NE 23:14:30 10° SE visible
21 Feb - 00:46:57 10° NW 00:51:19 27° WSW 00:55:23 10° SSW night (unlit)
21 Feb - 13:39:40 10° SE 13:43:20 17° ESE 13:47:00 10° ENE daylight
21 Feb - 15:18:45 10° SSW 15:24:42 82° ESE 15:30:31 10° NE daylight
21 Feb - 17:02:21 10° W 17:07:27 29° NW 17:12:25 10° NNE daylight
21 Feb - 18:48:19 10° NW 18:51:26 15° N 18:54:27 10° NNE visible
21 Feb - 20:32:37 10° NNW 20:35:54 15° NNE 20:39:03 10° NE visible
21 Feb - 22:14:37 10° NNW 22:19:40 36° NE 22:24:18 10° ESE visible
21 Feb - 23:56:49 10° NW 00:01:58 49° WSW 00:06:38 10° SSE night (unlit)
22 Feb - 14:29:25 10° S 14:35:06 49° ESE 14:40:42 10° NE daylight
22 Feb - 16:11:46 10° WSW 16:17:22 42° NW 16:22:50 10° NNE daylight
22 Feb - 17:57:13 10° WNW 18:00:59 17° NNW 18:04:39 10° NNE visible
22 Feb - 19:42:37 10° NNW 19:45:25 14° N 19:48:08 10° NE visible
22 Feb - 21:25:01 10° NNW 21:29:32 25° NNE 21:33:45 10° E visible
22 Feb - 23:06:58 10° NW 23:12:23 88° SW 23:17:17 10° SSE visible
23 Feb - 00:50:44 10° WNW 00:53:33 15° WSW 00:56:17 10° SW night (unlit)
23 Feb - 13:40:43 10° SSE 13:45:41 29° ESE 13:50:35 10° NE daylight
23 Feb - 15:21:34 10° SW 15:27:28 66° NW 15:33:14 10° NNE daylight
23 Feb - 17:06:09 10° WNW 17:10:38 22° NNW 17:15:00 10° NNE daylight
23 Feb - 18:52:10 10° NNW 18:54:53 13° N 18:57:32 10° NNE visible
23 Feb - 20:35:24 10° NNW 20:39:15 19° NNE 20:42:54 10° ENE visible
23 Feb - 22:17:17 10° NNW 22:22:37 54° NE 22:27:27 10° SE visible
23 Feb - 23:59:56 10° NW 00:04:22 28° WSW 00:08:28 10° S night (unlit)
24 Feb - 12:52:56 10° SE 12:56:25 16° ESE 12:59:52 10° ENE daylight
24 Feb - 14:31:48 10° SSW 14:37:44 79° ESE 14:43:32 10° NE daylight
24 Feb - 16:15:17 10° W 16:20:26 30° NW 16:25:26 10° NNE daylight
24 Feb - 18:01:15 10° NW 18:04:22 15° NNW 18:07:25 10° NNE visible
24 Feb - 19:45:40 10° NNW 19:48:50 15° NNE 19:51:54 10° NE visible
24 Feb - 21:27:40 10° NNW 21:32:38 34° NE 21:37:12 10° ESE visible
24 Feb - 23:09:50 10° NW 23:14:59 52° WSW 23:19:40 10° SSE visible
25 Feb - 13:42:31 10° S 13:48:09 47° ESE 13:53:42 10° NE daylight
25 Feb - 15:24:44 10° WSW 15:30:23 44° NW 15:35:51 10° NNE daylight
25 Feb - 17:10:08 10° WNW 17:13:56 17° NNW 17:17:38 10° NNE daylight
25 Feb - 18:55:38 10° NNW 18:58:21 13° N 19:01:00 10° NE visible
25 Feb - 20:38:04 10° NNW 20:42:30 24° NNE 20:46:37 10° E visible
25 Feb - 22:20:01 10° NW 22:25:24 88° NE 22:30:16 10° SE visible
26 Feb - 00:03:37 10° WNW 00:06:37 16° WSW 00:09:29 10° SW night (unlit)
26 Feb - 12:53:52 10° SSE 12:58:44 27° ESE 13:03:33 10° NE daylight
26 Feb - 14:34:35 10° SW 14:40:30 68° NW 14:46:15 10° NNE daylight
26 Feb - 16:19:04 10° W 16:23:37 22° NNW 16:28:01 10° NNE daylight
26 Feb - 18:05:08 10° NNW 18:07:50 13° N 18:10:28 10° NNE visible
26 Feb - 19:48:27 10° NNW 19:52:12 18° NNE 19:55:46 10° ENE visible
26 Feb - 21:30:20 10° NNW 21:35:36 52° NE 21:40:24 10° ESE visible
26 Feb - 23:12:56 10° NW 23:17:25 29° WSW 23:21:33 10° S visible
